[[{"header":{"parameterUnit":"m.s-1","parameterCategory":1,"la1":30.2991,"la2":30.254,"lo1":-89.0895,"lo2":-89.0444,"dy":0.0017,"dx":0.0017,"nx":28,"ny":28,"refTime":"2023-10-18T09:00:00:Z","depth":0,"parameterNumber":2,"parameterNumberName":"U-component_of_WINDS"},"data":[0,0,0,0,0,0,0,0,0,0,0,0,0,0,0,0,0,0,0,0,0,0,0,0,0,0,0,0,0,0,0,0,0,0,0,0,0,0,0,0,0,0,0,0,0,0,0,0,0,0,0,0,0,0,0,0,0,0,0.1954,0.1953,0,0.1814,0.1812,0.1811,0.1626,0.1623,0.162,0.1617,0.1479,0.1478,0.1477,0,0,0,0,0,0,0,0,0,0,0,0,0,0.2067,0.2066,0.1955,0.1953,0.1951,0.1814,0.1812,0.181,0.1627,0.1623,0.1619,0.1616,0.1479,0.1478,0.1477,0,0,0,0,0,0,0,0,0,0,0,0,0,0.1982,0.2066,0.1955,0.1843,0.1831,0.1815,0.1812,0.181,0.1627,0.1623,0.1618,0.1614,0.148,0.1478,0.1477,0.1561,0,0,0.1473,0.1473,0,0,0,0,0,0,0,0,0.1987,0.1978,0.1861,0.185,0.1837,0.1733,0.1801,0.1727,0.1629,0.1705,0.1617,0.1612,0.1568,0.1559,0.1543,0.1555,0.1549,0.1473,0.1473,0.1472,0.1472,0,0,0,0,0,0,0,0.1993,0.1983,0.1899,0.186,0.1845,0.1801,0.1783,0.1786,0.1664,0.1698,0.1684,0.167,0.156,0.1544,0.1538,0.1547,0.1473,0.1472,0.1471,0.1471,0.1621,0.1626,0,0,0,0,0,0,0.2015,0.1989,0.1903,0.1895,0.1902,0.1802,0.1783,0.1771,0.1663,0.1642,0.1674,0.1662,0.1549,0.154,0.1533,0.1626,0.1472,0.1471,0.147,0.1617,0.1622,0.1627,0,0,0,0,0,0,0.2018,0.2009,0.1909,0.1938,0.1922,0.1805,0.1793,0.1771,0.1755,0.1645,0.1623,0.168,0.1545,0.1534,0.1555,0.1618,0.147,0.1469,0.1611,0.1618,0.1625,0.1813,0,0,0,0,0,0,0.2022,0.2012,0.2042,0.194,0.1921,0.1934,0.1797,0.1771,0.1752,0.1735,0.1645,0.1626,0.154,0.1558,0.1554,0.1614,0.1468,0.1605,0.1614,0.1623,0.18,0.1825,0.1846,0,0,0,0,0,0.2027,0.2101,0.2044,0.2035,0.1956,0.1938,0.1927,0.1826,0.1758,0.1788,0.1717,0.1628,0.1611,0.1562,0.1556,0.1616,0.1601,0.1612,0.1622,0.179,0.182,0.1846,0,0,0,0,0,0,0.2216,0.2086,0.2021,0.2064,0.2013,0.1907,0.1942,0.1861,0.183,0.1816,0.1693,0.1674,0.1711,0.1664,0.1612,0.1692,0.1592,0.1603,0.1722,0.175,0.1773,0.1786,0.1467,0,0,0,0,0,0.2261,0.2256,0.2143,0.2192,0.2169,0.2061,0.2049,0.1975,0.1918,0.1896,0.1827,0.1776,0.1759,0.1751,0.1729,0.179,0.177,0.1829,0.1852,0.1871,0.1883,0.1914,0.194,0.1663,0.1662,0.1662,0,0,0.2358,0.2286,0.2291,0.2228,0.218,0.2179,0.2044,0.2048,0.2047,0.1897,0.1914,0.1861,0.1796,0.1838,0.1853,0.1801,0.1954,0.1885,0.1901,0.1903,0.1928,0.1955,0.1978,0.167,0.1668,0.1667,0,0,0.2534,0.2478,0.2513,0.2467,0.2395,0.2321,0.233,0.2234,0.2193,0.2207,0.2094,0.2091,0.2063,0.2023,0.1999,0.2156,0.2074,0.2152,0.2275,0.2307,0.2329,0.2348,0.2408,0.2431,0.2163,0.2163,0.2164,0,0.2664,0.2657,0.2542,0.2554,0.2531,0.2391,0.2428,0.2388,0.2314,0.2302,0.2243,0.2205,0.2152,0.2184,0.2222,0.2205,0.2214,0.2165,0.2334,0.2352,0.2368,0.2424,0.2447,0.2174,0.2173,0.2171,0.217,0,0.2822,0.2818,0.2856,0.2786,0.2766,0.279,0.268,0.2674,0.2601,0.2534,0.255,0.248,0.2442,0.2442,0.2372,0.2465,0.2435,0.2357,0.2255,0.2407,0.2458,0.2478,0.2188,0.2185,0.2182,0.2179,0,0,0.3119,0.2982,0.2998,0.2965,0.2874,0.287,0.2887,0.2848,0.2847,0.2798,0.2812,0.2791,0.2718,0.269,0.2613,0.264,0.2773,0.2558,0.2555,0.2605,0.2875,0.2939,0.2965,0.2716,0.2719,0.2722,0.2882,0,0.3281,0.3303,0.32,0.325,0.3247,0.3112,0.3127,0.3074,0.3011,0.3,0.293,0.2919,0.2821,0.2804,0.2824,0.2753,0.2827,0.2739,0.2731,0.2732,0.2758,0.2991,0.3058,0.3213,0.2901,0.2904,0.2906,0,0.3476,0.3437,0.3487,0.3393,0.3387,0.3403,0.3359,0.3349,0.3285,0.3237,0.3206,0.3115,0.3127,0.3026,0.3042,0.2985,0.2974,0.2938,0.2942,0.2942,0.2833,0.3003,0.3259,0.3285,0.2936,0.2933,0.2931,0,0.3693,0.3652,0.3677,0.3652,0.3542,0.3557,0.3512,0.3443,0.3426,0.3387,0.3375,0.3339,0.3321,0.3295,0.3198,0.3132,0.3227,0.3116,0.319,0.3194,0.3222,0.3222,0.3486,0.3206,0.3206,0.3205,0.3205,0,0.3889,0.3926,0.3773,0.379,0.3827,0.3706,0.3747,0.3689,0.3629,0.3632,0.3512,0.3518,0.3386,0.3378,0.3301,0.3328,0.3319,0.3283,0.3264,0.3298,0.3303,0.3294,0.3282,0.3211,0.321,0.3209,0.3208,0,0.4141,0.404,0.4059,0.3951,0.3925,0.3958,0.3867,0.3878,0.3805,0.3811,0.3805,0.3693,0.3677,0.3575,0.3536,0.3484,0.3541,0.3497,0.3563,0.3551,0.3633,0.3628,0.3904,0.3936,0.3632,0.3635,0.3637,0,0.4276,0.4301,0.4196,0.4189,0.4149,0.4139,0.412,0.4001,0.3987,0.3916,0.3937,0.391,0.3883,0.3864,0.378,0.3749,0.3707,0.3805,0.3702,0.3735,0.3714,0.3716,0.372,0.383,0.3834,0.3837,0.3839,0,0.4528,0.4476,0.4453,0.4414,0.4395,0.4358,0.4314,0.4315,0.4183,0.4174,0.4155,0.4134,0.4092,0.4069,0.4023,0.3978,0.3889,0.3871,0.3888,0.3926,0.3965,0.3949,0.3629,0.3867,0.3865,0.3862,0.3861,0.386,0.4729,0.4745,0.4674,0.4653,0.4606,0.4567,0.4573,0.45,0.4482,0.4439,0.4368,0.436,0.4295,0.4224,0.4185,0.4178,0.4126,0.4149,0.4155,0.4164,0.4184,0.3961,0.4169,0.4168,0.4167,0.4166,0.4165,0,0.4978,0.4925,0.4906,0.4848,0.4832,0.4743,0.469,0.4683,0.4677,0.4622,0.4597,0.4576,0.4552,0.4464,0.4431,0.4442,0.4401,0.4438,0.4439,0.4431,0.423,0.4221,0.4473,0.4473,0.4473,0.4473,0.4473,0.4472,0.5107,0.5132,0.5071,0.5071,0.5016,0.5007,0.4984,0.4948,0.4904,0.4886,0.4864,0.4806,0.4738,0.4699,0.4673,0.4648,0.4644,0.4696,0.4659,0.4474,0.4445,0.4417,0.4408,0.4695,0.4695,0.486,0.4862,0.4863]},{"header":{"parameterUnit":"m.s-1","parameterCategory":1,"la1":30.2991,"la2":30.254,"lo1":-89.0895,"lo2":-89.0444,"dy":0.0017,"dx":0.0017,"nx":28,"ny":28,"refTime":"2023-10-18T09:00:00:Z","depth":0,"parameterNumber":3,"parameterNumberName":"V-component_of_WINDS"},"data":[0,0,0,0,0,0,0,0,0,0,0,0,0,0,0,0,0,0,0,0,0,0,0,0,0,0,0,0,0,0,0,0,0,0,0,0,0,0,0,0,0,0,0,0,0,0,0,0,0,0,0,0,0,0,0,0,0,0,-1.3631,-1.363,0,-1.3612,-1.3611,-1.3611,-1.3624,-1.3625,-1.3625,-1.3626,-1.3608,-1.3607,-1.3606,0,0,0,0,0,0,0,0,0,0,0,0,0,-1.368,-1.3679,-1.3631,-1.363,-1.363,-1.3612,-1.3611,-1.3611,-1.3624,-1.3625,-1.3625,-1.3626,-1.3608,-1.3607,-1.3606,0,0,0,0,0,0,0,0,0,0,0,0,0,-1.366,-1.3679,-1.3631,-1.3634,-1.3634,-1.3612,-1.3611,-1.3611,-1.3624,-1.3625,-1.3626,-1.3626,-1.3609,-1.3607,-1.3606,-1.3579,0,0,-1.3601,-1.36,0,0,0,0,0,0,0,0,-1.3661,-1.3658,-1.3634,-1.3634,-1.3634,-1.3621,-1.3622,-1.36,-1.3624,-1.3628,-1.3626,-1.3627,-1.3612,-1.361,-1.3605,-1.3578,-1.3577,-1.3601,-1.36,-1.3599,-1.3599,0,0,0,0,0,0,0,-1.3662,-1.3659,-1.3623,-1.3634,-1.3634,-1.3637,-1.3636,-1.3618,-1.3615,-1.3628,-1.3628,-1.3626,-1.3612,-1.3606,-1.3604,-1.3577,-1.3601,-1.36,-1.3599,-1.3598,-1.3527,-1.3526,0,0,0,0,0,0,-1.3663,-1.366,-1.3624,-1.3623,-1.365,-1.3636,-1.3634,-1.3624,-1.3615,-1.3615,-1.3625,-1.3627,-1.3608,-1.3606,-1.3604,-1.3571,-1.3599,-1.3598,-1.3597,-1.3528,-1.3526,-1.3525,0,0,0,0,0,0,-1.3664,-1.366,-1.3625,-1.3641,-1.3637,-1.3634,-1.3624,-1.3624,-1.3618,-1.3614,-1.3613,-1.3619,-1.3609,-1.3606,-1.3585,-1.357,-1.3597,-1.3596,-1.3529,-1.3527,-1.3526,-1.3505,0,0,0,0,0,0,-1.3665,-1.366,-1.3649,-1.3641,-1.3636,-1.3605,-1.3623,-1.3623,-1.3615,-1.3616,-1.3608,-1.3608,-1.3609,-1.3587,-1.3583,-1.3569,-1.3595,-1.353,-1.3528,-1.3526,-1.3507,-1.3503,-1.35,0,0,0,0,0,-1.3667,-1.3645,-1.3649,-1.3644,-1.3623,-1.3604,-1.3602,-1.3603,-1.3613,-1.3603,-1.36,-1.3608,-1.3573,-1.3585,-1.358,-1.3565,-1.3531,-1.3529,-1.3527,-1.3508,-1.3504,-1.35,0,0,0,0,0,0,-1.3652,-1.3644,-1.3648,-1.3622,-1.3614,-1.3606,-1.3593,-1.3598,-1.3587,-1.3589,-1.3593,-1.3591,-1.3568,-1.3565,-1.3578,-1.3539,-1.3554,-1.355,-1.3541,-1.3537,-1.3533,-1.3534,-1.3593,0,0,0,0,0,-1.3646,-1.3631,-1.3625,-1.3603,-1.3598,-1.3596,-1.3588,-1.359,-1.3582,-1.3579,-1.3575,-1.3567,-1.3554,-1.3545,-1.3533,-1.3507,-1.3505,-1.3495,-1.3491,-1.3488,-1.3485,-1.347,-1.3465,-1.3518,-1.3518,-1.3518,0,0,-1.3633,-1.3626,-1.3617,-1.3599,-1.3593,-1.3578,-1.3593,-1.3577,-1.3566,-1.3577,-1.3555,-1.3552,-1.3544,-1.352,-1.3509,-1.3516,-1.347,-1.3485,-1.3483,-1.3481,-1.3467,-1.3462,-1.3457,-1.3517,-1.3517,-1.3517,0,0,-1.3601,-1.3595,-1.3575,-1.3568,-1.3558,-1.3557,-1.3552,-1.3544,-1.3542,-1.3521,-1.3529,-1.3516,-1.3494,-1.3487,-1.3481,-1.3446,-1.3452,-1.3442,-1.3422,-1.3408,-1.3403,-1.34,-1.3386,-1.3381,-1.3439,-1.3439,-1.3439,0,-1.3586,-1.3562,-1.3564,-1.3547,-1.3539,-1.3547,-1.3527,-1.3521,-1.3508,-1.3502,-1.3511,-1.3483,-1.3478,-1.3451,-1.3443,-1.3438,-1.3432,-1.3442,-1.3404,-1.34,-1.3397,-1.3384,-1.3379,-1.3438,-1.3438,-1.3438,-1.3438,0,-1.3544,-1.3528,-1.3513,-1.3499,-1.3489,-1.3471,-1.347,-1.3461,-1.3464,-1.3462,-1.344,-1.3435,-1.3421,-1.3415,-1.3419,-1.339,-1.3394,-1.3403,-1.3418,-1.339,-1.3378,-1.3373,-1.3436,-1.3436,-1.3437,-1.3437,0,0,-1.3502,-1.3488,-1.3483,-1.3476,-1.3465,-1.3453,-1.3435,-1.3421,-1.3412,-1.3403,-1.3388,-1.3369,-1.3377,-1.337,-1.3372,-1.336,-1.3331,-1.337,-1.337,-1.3362,-1.3298,-1.329,-1.3284,-1.3336,-1.3335,-1.3334,-1.3298,0,-1.3468,-1.3435,-1.3436,-1.3406,-1.339,-1.3398,-1.3383,-1.3375,-1.3373,-1.336,-1.3358,-1.3344,-1.3356,-1.3352,-1.334,-1.3337,-1.3318,-1.334,-1.3321,-1.332,-1.3322,-1.3278,-1.327,-1.3236,-1.3293,-1.3293,-1.3292,0,-1.3424,-1.3412,-1.338,-1.337,-1.3364,-1.335,-1.3337,-1.3324,-1.3316,-1.3315,-1.3307,-1.3311,-1.3293,-1.3309,-1.3285,-1.3299,-1.3292,-1.329,-1.3289,-1.3286,-1.3304,-1.3273,-1.3226,-1.322,-1.3285,-1.3285,-1.3286,0,-1.3395,-1.3371,-1.3348,-1.3342,-1.3331,-1.3321,-1.3316,-1.3308,-1.3299,-1.3288,-1.3283,-1.327,-1.3263,-1.3254,-1.3255,-1.3267,-1.3229,-1.3246,-1.3228,-1.3228,-1.3219,-1.3219,-1.3168,-1.3216,-1.3216,-1.3216,-1.3216,0,-1.3356,-1.3336,-1.3334,-1.332,-1.3298,-1.33,-1.3278,-1.3274,-1.3267,-1.3252,-1.326,-1.3246,-1.3249,-1.3236,-1.3237,-1.3215,-1.3213,-1.3211,-1.3212,-1.321,-1.321,-1.3204,-1.3206,-1.3215,-1.3215,-1.3215,-1.3216,0,-1.332,-1.3318,-1.3293,-1.3284,-1.3282,-1.3265,-1.3258,-1.3245,-1.3244,-1.3225,-1.3221,-1.3219,-1.3204,-1.3204,-1.3187,-1.3188,-1.3161,-1.3165,-1.3164,-1.3164,-1.3146,-1.3147,-1.3088,-1.308,-1.3135,-1.3134,-1.3134,0,-1.3295,-1.3279,-1.3268,-1.3258,-1.3252,-1.3237,-1.3228,-1.3229,-1.322,-1.3208,-1.3196,-1.3181,-1.3169,-1.3144,-1.3142,-1.3129,-1.3131,-1.3112,-1.3129,-1.3128,-1.313,-1.313,-1.3128,-1.3108,-1.3107,-1.3107,-1.3106,0,-1.325,-1.325,-1.3236,-1.3221,-1.3209,-1.3198,-1.3188,-1.318,-1.318,-1.3169,-1.3153,-1.3143,-1.3125,-1.311,-1.3098,-1.3094,-1.31,-1.3101,-1.3096,-1.3093,-1.3093,-1.3092,-1.3153,-1.3102,-1.3102,-1.3103,-1.3103,-1.3103,-1.3218,-1.3203,-1.3193,-1.3177,-1.3169,-1.3159,-1.3146,-1.3142,-1.3129,-1.3113,-1.3115,-1.3097,-1.3089,-1.3072,-1.3067,-1.3053,-1.306,-1.3053,-1.3051,-1.3049,-1.3046,-1.3096,-1.3051,-1.3051,-1.3051,-1.3051,-1.3051,0,-1.3172,-1.3166,-1.3151,-1.3136,-1.3123,-1.3129,-1.3118,-1.3107,-1.3091,-1.3082,-1.307,-1.3051,-1.3036,-1.3032,-1.3018,-1.3008,-1.301,-1.3004,-1.3004,-1.3003,-1.3041,-1.3046,-1.3002,-1.3002,-1.3002,-1.3002,-1.3002,-1.3002,-1.3147,-1.3123,-1.3122,-1.3094,-1.3088,-1.3069,-1.3062,-1.3053,-1.3046,-1.3024,-1.3011,-1.3009,-1.3002,-1.2987,-1.2974,-1.2973,-1.2967,-1.296,-1.296,-1.2995,-1.3,-1.3005,-1.301,-1.2959,-1.2958,-1.2923,-1.2922,-1.2922]}]]